OBJECT P, 57179

Orbit data source: Space-Track

You're viewing an Uncataloged Satellite

Recently launched and/or uncataloged satellites may have evolving metadata. Metadata may include but not limited to: Owner, Maufacturer, Bus, Motor, and Mission.

OBJECT P, 57179 is a satellite in SSO that was launched on Tue, 27 Jun 2023 UTC via a SOYUZ-2-1B launch vehicle from the Vostochny Cosmodrome (VOSTO). Unknown objects in Earth's orbit typically refer to objects detected orbiting the Earth but have not yet been identified or cataloged. These objects could be anything from previously untracked satellites, spent rocket stages, debris from satellite collisions, or even natural meteoroids temporarily captured by Earth's gravity.

Loading next visibility...
Identifier
57179, 2023-091P
Orbit
SSO
Country
Flag of TBDTBD
Related business
None
Manufacturer
Unknown
Mission
Operational Commercial Communications
Bus & Motor
Unknown
Mass
Unknown
Launch date (UTC)
2023-06-27 (3 years ago)
Launch vehicle
SOYUZ-2-1B
Launch site
Vostochny Cosmodrome (VOSTO)
Object type
Unknown
Shape & HBR
Box + 2 Pan, 1.5 m
Radar Cross Section
1.055 m², Small (<0.1 m²)

Expand to show TLE details & history
Last TLE update: 13 hours ago

TLE from 13 hours ago
0 OBJECT P
1 57179U 23091P   26105.91919874  .00002242  00000-0  11996-3 0  9995
2 57179  97.5156 162.5265 0014425 347.2592  12.8274 15.16016921154353
Epoch: 2026-04-15T22:03Z
TLE epoch observation values (Epoch: 2026-04-15T22:03:38.771Z)
Latitude
-0°
Longitude
-12.45924°
Altitude
511.274 km
Speed
7.614 km/s
True Right ascension
10h 50m 06s
True Declination
0° 00' 00"
Sunlit
Object was in full shadow at epoch
Visualization orbit readout
Latitude
Unknown
Longitude
Unknown
Altitude
Unknown
Speed
Unknown
Apparent Right ascension
Unknown
Apparent Declination
Unknown
Sunlit
N/A
Visualization observer readout
Local Sidereal Time
18:07:52
Azimuth
Unknown
Elevation
Unknown
Doppler factor
Unknown
Orbital elements
Apogee altitude
524.812 km
Perigee altitude
504.926 km
Semi-major axis
6,893.006 km
Eccentricity
0.00144
Inclination
97.5156°
RAAN
162.5265°
Arg. of periapsis
347.2592°
True anomaly
12.86416°
Mean anomaly
12.8274°
Eccentric anomaly
12.84578°
Mean motion
3.79254 °/min
Orbital period
94.92 mins
BSTAR
0.00011996
Loading maneuver chart data...
Computing Atmospheric mass density...
Loading historical data...
Loading historical data...
Loading historical data...
Loading historical data...
Loading historical data...
Loading historical data...
Loading historical data...

Documentation

Showing up to 5 results
|